EHI
1 1 2 3 2 1 0 0 0 0 0 0 0 0 0 0 0 0 0 0 0 0 0 0 0 0 0 0 0 0 0 0 0 0 0 0 0 0 0 0 0 0 0
2 3 3 3 2 1 1 1 0 0 0 0 0 0 0 0 0 0 0 0 0 0 0 0 0 0 0 0 0 0 0 0 0 0 0 0 0 0 0 0 0 0 0
3 3 4 4 3 3 2 1 0 0 0 0 0 0 0 0 0 0 0 0 0 0 0 0 0 0 0 0 0 0 0 0 0 0 0 0 0 0 0 0 0 0 0
3 3 4 4 5 5 3 1 0 0 0 0 0 0 0 0 0 0 0 0 0 0 0 0 0 0 0 0 0 1 1 0 0 0 0 0 0 0 0 0 0 0 0
3 4 5 5 5 5 3 1 0 0 0 0 0 0 0 0 0 0 0 0 0 0 0 0 0 0 0 0 1 1 1 0 0 0 0 0 0 0 0 0 0 0 0
3 4 5 5 6 6 4 2 1 0 0 0 1 1 1 0 0 0 0 0 0 0 0 0 0 0 0 0 1 1 0 0 0 0 1 1 1 1 1 0 0 0 0
3 3 5 7 8 7 6 5 3 2 1 1 2 2 1 0 0 0 0 0 0 0 0 0 0 0 0 0 1 1 1 1 1 1 2 3 4 4 4 2 1 0 0
3 3 5 9 11 9 9 9 7 5 4 4 4 3 2 1 1 0 0 0 0 0 0 0 0 0 0 0 0 1 2 2 2 2 3 5 6 6 6 5 4 2 1
2 3 5 9 13 13 12 13 11 9 8 7 6 5 3 3 2 1 0 0 0 0 0 0 0 0 0 0 0 1 1 1 3 4 4 4 6 6 7 7 7 5 4
3 3 4 9 14 14 14 15 14 12 10 10 8 7 6 4 3 2 1 1 1 1 1 1 0 0 0 0 0 0 0 1 2 3 3 4 5 6 7 8 8 7 6
4 4 5 8 12 14 14 15 14 13 12 12 11 9 7 5 3 2 2 2 2 3 3 3 1 0 0 0 0 0 0 1 2 3 3 3 4 4 5 6 6 6 6
4 5 5 6 10 14 15 15 13 12 11 11 11 10 7 6 5 3 3 3 4 5 5 4 2 1 1 0 0 0 0 2 3 5 4 3 4 5 5 5 4 5 5
5 4 4 5 9 13 15 15 12 10 9 10 11 10 8 8 7 6 6 6 6 5 4 4 4 4 3 2 2 2 2 3 5 6 6 6 7 8 7 6 4 4 4
5 4 3 5 8 12 15 16 14 12 12 12 12 10 10 10 9 8 7 8 8 7 5 5 7 7 6 6 7 7 7 7 7 6 6 7 9 9 8 6 5 4 3
6 5 4 6 8 12 16 18 19 19 18 17 13 11 10 10 10 10 8 7 9 10 8 7 9 9 8 9 10 10 10 11 9 7 6 6 7 7 6 4 3 3 3
11 9 6 7 11 14 17 20 22 24 23 19 15 12 10 9 10 11 9 8 9 10 10 10 12 12 10 9 8 7 9 10 8 6 5 5 6 5 3 2 1 1 2
15 13 10 10 12 15 17 19 22 23 21 18 16 14 12 10 11 13 12 11 9 9 10 12 14 14 11 7 4 3 5 7 6 5 5 5 5 4 2 1 0 1 1
13 13 12 11 12 14 16 17 18 20 17 14 15 16 15 15 16 17 15 12 10 10 10 12 14 14 11 6 2 1 3 4 4 4 4 4 5 4 2 2 2 2 1
10 10 10 10 10 12 15 17 18 19 17 14 14 17 18 18 20 19 15 12 10 11 11 12 12 12 9 5 2 2 4 4 4 3 3 3 3 2 1 2 3 4 4
8 7 7 8 8 10 14 17 19 20 20 17 17 19 20 20 18 15 13 11 10 11 11 11 10 10 8 6 3 3 6 7 5 4 3 2 2 1 0 1 3 4 5
6 5 5 6 7 8 11 15 17 19 20 20 19 19 20 19 16 13 13 12 11 10 10 10 10 10 9 7 4 3 6 7 6 4 3 2 1 0 0 0 1 3 3
6 6 5 5 5 7 9 13 14 16 18 19 18 17 18 17 15 14 13 12 11 11 10 10 10 10 10 8 4 2 3 5 6 5 4 2 1 0 0 0 0 1 1
9 7 6 6 5 5 7 10 12 14 17 17 15 14 14 14 13 13 13 12 11 11 10 9 9 10 10 8 5 2 1 2 3 4 3 2 1 0 0 0 0 0 0
10 8 6 5 4 3 5 7 9 13 17 17 14 12 12 12 12 11 10 10 10 10 10 9 9 9 9 9 6 3 2 1 2 2 1 1 0 0 0 0 0 0 0
5 5 3 2 2 1 3 5 8 11 14 14 12 11 10 10 10 8 7 7 8 8 8 8 8 8 8 7 5 3 2 2 1 1 0 0 0 0 0 0 0 0 0
2 1 1 0 1 1 2 4 7 8 10 10 9 9 9 9 8 6 4 4 5 6 6 6 6 7 7 5 3 1 1 1 1 0 0 0 0 0 0 0 0 0 0
Wind_Speed
6 4 4 5 5 5 4 5 4 4 4 2 2 2 1 1 1 1 2 2 3 4 3 3 2 3 3 3 4 3 4 2 2 2 2 2 2 1 0 1 1 2 2
4 5 5 5 6 6 5 5 5 5 4 3 2 2 2 1 1 1 1 2 3 3 3 3 3 3 3 3 3 3 3 2 2 2 2 1 2 2 1 0 1 1 1
9 7 7 7 6 6 7 6 5 4 4 4 3 2 2 2 1 1 1 2 3 3 3 4 3 3 3 3 3 3 4 3 1 1 2 2 1 1 1 1 1 0 1
9 8 8 8 8 8 6 5 5 5 4 5 4 4 3 2 2 1 1 1 2 2 3 3 3 3 3 3 3 3 3 4 2 1 1 1 2 2 0 1 1 0 1
10 11 11 10 8 7 7 6 5 4 4 5 5 5 3 2 1 1 1 1 1 2 2 3 3 3 3 3 3 3 3 3 3 2 2 1 1 1 2 1 1 0 0
10 9 8 7 6 6 6 6 5 4 4 5 5 5 5 4 3 2 2 1 1 1 2 3 3 3 3 3 3 3 4 3 3 3 2 3 2 3 3 2 1 1 1
10 9 9 9 8 8 7 6 6 5 5 5 5 5 5 5 5 4 3 3 2 1 2 3 3 3 3 3 3 3 3 4 4 4 3 3 3 3 3 2 2 1 1
9 10 11 10 10 9 9 8 7 6 5 5 5 5 5 4 3 4 3 4 3 3 3 3 4 4 4 4 3 3 3 3 4 4 4 3 3 3 3 3 3 2 1
9 9 10 10 10 9 9 9 9 7 6 6 5 4 4 4 4 3 3 3 3 3 3 3 3 3 4 4 4 3 3 3 4 4 4 3 3 3 3 3 4 4 3
6 7 9 10 10 9 9 8 8 8 7 6 6 5 5 5 4 3 4 3 3 3 3 3 3 3 3 4 4 3 3 3 3 3 4 4 3 3 3 4 3 3 3
7 7 8 9 9 8 8 8 8 7 6 6 6 5 4 4 4 4 4 4 3 4 4 4 3 4 4 4 4 4 4 4 4 4 4 4 3 3 3 3 3 3 3
6 6 7 8 8 8 8 9 8 8 7 7 6 5 4 4 4 4 4 4 4 4 4 3 3 4 4 4 4 5 4 5 5 4 4 5 3 4 3 3 4 3 3
4 4 5 7 8 9 9 8 8 8 7 6 6 5 5 5 5 4 4 4 4 3 3 3 4 4 4 4 5 5 5 5 5 5 5 5 4 4 4 4 4 3 3
4 4 5 6 7 7 7 7 7 6 6 6 6 6 6 6 5 4 4 4 4 4 4 4 4 4 4 4 4 5 4 4 4 4 5 5 5 6 5 4 4 4 3
2 4 5 5 5 6 6 6 6 6 6 6 6 6 6 5 5 4 4 4 4 4 4 3 4 4 4 4 5 5 5 4 4 4 5 5 6 6 5 4 4 4 3
4 4 4 4 5 6 6 5 5 5 5 6 6 5 4 4 4 4 4 4 3 3 3 3 4 4 4 4 6 5 4 4 5 5 5 4 5 6 6 7 7 7 6
3 3 4 5 4 4 4 5 5 5 5 5 4 4 5 4 4 4 4 4 4 3 4 4 4 5 5 6 6 7 5 5 5 5 4 3 3 4 4 4 6 7 8
4 3 2 3 2 2 2 3 3 4 4 4 4 3 4 4 3 4 4 4 3 3 4 4 4 4 5 6 6 6 5 4 4 4 5 5 4 4 5 4 4 5 6
3 2 3 3 3 3 3 4 4 3 3 3 3 3 4 4 4 4 4 4 3 3 3 3 4 4 4 4 5 4 3 3 5 5 5 5 6 6 6 5 5 5 5
3 3 4 4 4 3 4 5 4 3 2 1 2 2 3 3 4 4 3 2 3 3 3 2 2 3 4 3 4 4 3 4 4 4 4 6 7 6 7 6 6 6 5
4 4 4 4 3 3 5 5 4 2 1 1 1 1 1 1 2 2 2 2 2 1 1 1 2 2 3 3 4 5 3 4 4 4 4 4 6 7 8 7 6 7 5
4 4 4 3 2 3 4 4 2 1 2 2 1 1 1 1 1 1 1 1 1 1 1 1 2 2 2 3 4 5 5 5 4 4 4 4 6 7 7 6 6 6 4
3 3 4 4 3 3 3 3 0 1 3 2 1 1 1 1 1 1 1 0 1 1 1 2 2 3 2 3 4 5 6 6 4 4 5 5 6 6 5 7 7 5 4
3 3 4 4 3 2 2 1 1 2 3 2 1 1 1 0 0 1 1 1 1 2 2 2 2 2 2 2 2 2 2 3 4 4 3 4 4 4 4 4 4 4 4
3 3 3 3 2 3 2 2 2 2 2 1 1 1 0 0 1 1 1 2 2 3 3 3 3 2 3 4 3 2 2 2 2 2 1 2 2 2 2 2 3 3 3
2 3 3 3 3 3 3 3 2 2 2 1 1 0 0 0 0 0 2 2 2 2 3 4 3 3 5 5 4 4 4 4 3 2 2 3 3 3 3 3 3 3 4
Wind_Direction
207 180 170 163 155 154 158 162 157 156 142 131 139 142 155 155 148 172 165 158 156 150 146 146 139 139 141 146 140 126 121 117 114 97 61 26 32 52 255 210 199 208 208
186 180 169 163 164 167 169 167 168 166 164 161 152 148 140 147 154 154 143 156 160 160 159 154 151 143 137 138 144 140 133 142 137 126 110 39 6 16 35 72 191 202 186
192 187 181 179 174 177 179 181 177 171 170 156 125 102 84 73 85 118 167 173 166 164 157 162 155 152 153 163 169 161 156 160 150 144 146 149 202 312 358 24 51 133 173
191 187 184 184 186 188 180 175 173 170 167 154 150 152 158 171 197 187 186 178 164 164 164 162 162 163 162 171 184 172 160 152 164 155 145 152 154 158 255 338 359 20 195
190 189 190 190 188 182 175 171 165 171 170 165 165 162 164 176 164 146 159 176 169 178 177 174 168 172 174 181 186 168 167 166 169 169 157 140 123 152 173 236 283 327 275
191 192 187 177 176 173 170 168 168 181 175 170 170 173 174 171 161 169 179 192 192 196 199 188 185 187 185 189 193 184 179 183 181 181 174 170 172 182 179 202 235 256 272
187 183 178 178 179 178 177 174 174 186 180 177 181 185 185 179 183 187 192 191 193 207 214 200 195 196 196 196 192 189 195 192 191 196 199 199 199 175 167 171 201 235 257
184 185 185 184 184 183 181 177 180 188 185 185 192 190 188 188 196 196 193 198 206 214 207 198 201 202 195 195 190 194 205 199 205 212 207 206 210 192 180 175 174 203 245
182 182 181 181 183 183 185 184 184 186 188 193 191 193 195 195 200 201 203 207 210 211 201 194 199 200 198 195 187 199 208 199 208 216 212 213 215 203 199 188 184 181 212
178 178 181 183 184 186 184 183 185 187 188 191 197 200 199 200 199 194 204 207 210 212 204 201 199 200 201 197 194 205 214 211 219 215 214 216 216 206 200 199 199 192 193
184 183 185 185 180 177 178 183 189 184 187 191 195 197 196 195 191 199 208 205 205 202 206 208 201 201 204 201 203 215 212 217 227 226 220 227 213 209 204 195 195 196 186
182 182 179 174 174 179 184 189 192 191 193 189 187 193 193 189 193 208 214 203 205 208 208 203 203 209 212 208 210 223 222 221 228 230 226 232 219 213 208 198 199 198 192
170 164 163 174 182 186 190 193 195 196 191 181 182 188 193 196 205 214 212 205 207 211 209 202 208 216 215 215 218 221 222 224 230 229 228 231 217 222 215 208 207 203 196
162 166 173 183 188 189 190 192 194 190 183 179 185 193 200 204 209 210 208 210 209 211 213 213 214 216 219 220 221 222 223 226 230 230 228 226 221 224 217 213 210 198 190
166 180 182 181 181 182 186 188 188 183 179 179 190 202 204 202 202 202 205 210 214 223 221 218 224 220 220 223 221 225 227 229 235 236 234 232 225 223 215 212 202 192 193
183 185 180 171 177 183 181 179 182 180 173 182 197 198 196 200 205 205 202 206 214 216 211 222 227 227 231 232 224 220 229 232 236 241 240 235 230 225 216 212 199 191 194
175 176 176 174 181 182 172 177 182 168 167 182 191 192 195 205 211 203 198 209 213 211 213 222 227 235 241 234 229 223 223 231 235 237 234 234 230 212 214 213 207 210 211
157 168 159 154 144 136 151 148 146 150 163 174 189 190 188 202 204 199 209 216 216 218 227 229 229 235 246 235 233 227 228 234 232 230 223 222 232 220 203 205 217 228 229
145 140 135 138 127 136 140 122 122 131 148 173 189 191 188 194 203 212 217 214 211 226 230 231 229 231 246 233 228 216 217 232 239 237 233 227 232 229 204 200 217 238 250
107 109 107 103 103 112 113 110 111 117 133 167 197 184 183 190 204 212 212 205 201 222 229 238 237 230 246 245 229 211 216 238 250 250 245 235 234 231 209 210 215 231 242
95 94 92 96 105 118 112 110 112 130 144 114 127 118 131 171 178 179 186 188 193 204 224 240 254 246 247 243 229 217 216 229 241 243 244 242 229 224 218 217 225 234 232
80 91 96 90 72 85 105 104 109 144 112 107 110 100 104 126 120 115 116 133 160 180 240 261 279 275 264 249 238 230 232 232 236 243 244 243 229 225 222 223 232 231 224
75 83 104 89 72 77 103 118 139 89 108 119 133 115 89 83 126 139 148 155 174 196 241 244 264 280 280 267 250 236 238 242 243 247 245 246 243 233 230 230 230 222 217
64 72 87 81 61 57 69 81 60 112 125 135 150 131 99 63 73 124 176 198 220 222 239 245 256 271 278 274 268 253 247 246 250 259 259 253 247 236 238 237 228 220 218
58 64 86 79 51 49 46 36 59 94 102 110 115 94 113 266 317 305 251 225 239 230 230 242 239 247 268 267 248 237 245 242 246 245 261 259 252 246 246 246 241 232 223
64 73 77 74 54 49 34 23 42 87 100 81 48 48 59 329 320 313 331 329 268 281 254 245 247 260 260 271 265 253 246 243 227 193 241 254 252 247 245 242 243 238 234